Hourly Data Report for April 14, 2010

YELLOWKNIFE A
NORTHWEST TERRITORIES

62°27'46.000" N
114°26'25.000" W
205.70 m
2204100
71936
YZF

Download Data

Hourly Data (April 2010)
Hourly Data Report for April 14, 2010
TIME
LST
Temp Definition
°C
Dew Point Definition
°C
Rel Hum Definition
%
Precip. Amount Definition
mm

Wind Dir Definition
10's deg

Wind Spd Definition
km/h
Visibility Definition
km
Stn Press Definition
kPa
Hmdx Definition


Wind Chill Definition


Weather Definition


00:00 2.2 -5.3 58   18 19 24.1 98.00     Mainly Clear
01:00 1.5 -5.5 60   17 11 24.1 97.97     Mainly Clear
02:00 0.7 -6.2 60   18 4 24.1 97.99     Clear
03:00 -0.4 -6.7 62     0 24.1 98.04     Clear
04:00 -0.3 -6.9 61   26 4 24.1 98.09   -2 Mostly Cloudy
05:00 -0.2 -7.4 58   30 13 24.1 98.18   -4 Mostly Cloudy
06:00 -0.3 -8.0 56   32 7 24.1 98.29   -3 Mainly Clear
07:00 1.0 -7.5 53   32 7 24.1 98.41     Mainly Clear
08:00 2.8 -6.9 49   34 11 24.1 98.52     Clear
09:00 3.6 -6.4 48   32 15 24.1 98.67     Clear
10:00 4.8 -6.3 44   33 9 24.1 98.83     Clear
11:00 5.3 -6.0 44   32 15 24.1 98.85     Clear
12:00 5.6 -6.6 41   35 11 24.1 98.90     Clear
13:00 6.5 -7.0 37   33 4 24.1 98.96     Clear
14:00 7.2 -6.4 37   33 9 24.1 99.01     Clear
15:00 7.9 -6.8 34     0 24.1 99.05     Clear
16:00 8.9 -5.9 35   21 6 24.1 99.07     Clear
17:00 8.9 -6.3 33   24 4 24.1 99.10     Mainly Clear
18:00 9.2 -6.9 31     0 24.1 99.09     Mainly Clear
19:00 7.5 -6.7 36   17 6 24.1 99.08     Mainly Clear
20:00 3.7 -7.5 44   18 9 24.1 99.12     Mainly Clear
21:00 3.1 -7.8 45     0 24.1 99.16     Clear
22:00 0.6 -8.1 52     0 24.1 99.20     Clear
23:00 2.0 -7.9 48   30 4 24.1 99.26     Clear

Notes on Data Quality.

Legend

  • E = Estimated
  • M = Missing
  • NA = Not Available*
  • [empty] = Indicates an unobserved value
Date modified: